Location: ???????
(55.4362°N, 38.1183°E)
Time: 18:42:27
(UTC+00:00)

Cosmos 2278 Rocket - Pass Details

Date: 26 October 2021
Orbit: 841 x 845 km, 71.0° (Epoch: 28 November)

Event Time Altitude Azimuth Distance (km) Brightness Sun altitude
Rises 19:00:40 0° 318° (NW) 3,417 6.2 -40.3°
Reaches altitude 10° 19:04:04 10° 298° (WNW) 2,475 5.2 -40.6°
Enters shadow 19:06:13 15° 276° (W) 2,134 4.6 -40.8°
